Location: ????????
(60.4333°N, 46.4710°E)
Time: 19:15:48
(UTC+00:00)

Cosmos 2333 Rocket - Pass Details

Date: 25 November 2020
Orbit: 841 x 861 km, 70.8° (Epoch: 17 January)

Event Time Altitude Azimuth Distance (km) Brightness Sun altitude
Rises 16:57:16 0° 274° (W) 3,409 6.3 -34.6°
Reaches altitude 10° 17:00:00 10° 285° (WNW) 2,473 5.4 -35.0°
Enters shadow 17:04:22 30° 334° (NNW) 1,468 3.7 -35.5°
